FW4559 Weather Reports


time (UTC)temp
C
wind
direction
speed
KPH
gust
KPH
rain 1hr
cm
rain 24hr
cm
rain mn
cm
humidity
%
barometer
mb
20260906205502 20 214 0.0 4.8 0.03 0.89 0.89 94 1011.8
20260906205000 20 223 1.6 4.8 0.03 0.89 0.89 93 1011.8
20260906204501 21 217 0.0 3.2 0.03 0.89 0.89 93 1012.1
20260906204100 21 233 0.0 3.2 0.03 0.89 0.89 93 1012.1
20260906203600 21 212 0.0 1.6 0.03 0.89 0.89 94 1012.0
20260906203100 21 198 0.0 1.6 0.03 0.89 0.89 94 1011.8
20260906202559 21 198 0.0 1.6 0.03 0.89 0.89 95 1011.8
20260906202059 20 214 0.0 3.2 0.03 0.89 0.89 95 1012.0
20260906201606 20 214 0.0 6.4 0.03 0.89 0.89 95 1011.8
20260906201100 20 169 1.6 4.8 0.03 0.89 0.89 95 1011.8
20260906200558 20 219 0.0 8.0 0.03 0.89 0.89 95 1012.1
20260906200059 20 164 1.6 8.0 0.00 0.86 0.86 95 1012.2
20260906195559 20 179 1.6 11.3 0.03 0.86 0.86 95 1012.3
20260906195101 20 101 3.2 11.3 0.03 0.86 0.86 95 1012.4
20260906194558 20 158 0.0 8.0 0.03 0.86 0.86 95 1012.6
20260906194058 20 154 1.6 8.0 0.03 0.86 0.86 95 1012.3
20260906193600 20 113 0.0 8.0 0.05 0.86 0.86 95 1012.2
20260906193058 20 212 0.0 3.2 0.10 0.86 0.86 95 1012.3
20260906192557 20 123 0.0 3.2 0.15 0.86 0.86 95 1012.3
20260906192056 20 163 0.0 3.2 0.15 0.86 0.86 95 1012.4
20260906191657 20 163 0.0 3.2 0.15 0.86 0.86 95 1012.1
20260906191058 20 165 0.0 3.2 0.15 0.86 0.86 95 1011.9
20260906190555 20 150 0.0 6.4 0.15 0.86 0.86 95 1011.8
20260906190056 20 202 0.0 8.0 0.15 0.86 0.86 95 1011.8
20260906185556 20 206 0.0 8.0 0.13 0.84 0.84 95 1011.9
20260906185055 20 124 1.6 6.4 0.13 0.84 0.84 95 1012.0
20260906184555 20 214 0.0 4.8 0.13 0.84 0.84 94 1011.9
20260906184054 20 129 0.0 11.3 0.13 0.84 0.84 94 1012.0
20260906183554 20 106 0.0 9.7 0.10 0.81 0.81 94 1012.2
20260906183054 20 113 0.0 9.7 0.05 0.76 0.76 93 1012.2
20260906182554 20 160 0.0 4.8 0.00 0.71 0.71 92 1012.2
20260906182054 21 186 0.0 4.8 0.00 0.71 0.71 92 1012.2
20260906181554 21 142 0.0 4.8 0.00 0.71 0.71 92 1012.1
20260906181053 21 172 0.0 0.0 0.00 0.71 0.71 92 1012.2
20260906180553 21 182 0.0 0.0 0.03 0.71 0.71 91 1012.3
20260906180105 21 181 0.0 1.6 0.10 0.71 0.71 91 1012.3
20260906175554 22 181 0.0 1.6 0.18 0.71 0.71 92 1012.4
20260906175053 22 82 0.0 1.6 0.18 0.71 0.71 91 1012.5
20260906174604 22 82 0.0 1.6 0.18 0.71 0.71 90 1012.4
20260906174053 22 82 0.0 0.0 0.18 0.71 0.71 89 1012.3
20260906173552 22 82 0.0 0.0 0.18 0.71 0.71 90 1012.4
20260906173052 22 82 0.0 0.0 0.18 0.71 0.71 90 1012.4
20260906172652 22 82 0.0 0.0 0.18 0.71 0.71 88 1012.4
20260906172051 22 82 0.0 0.0 0.18 0.71 0.71 87 1012.3
20260906171551 23 82 0.0 0.0 0.18 0.71 0.71 87 1012.3
20260906171051 23 82 0.0 0.0 0.18 0.71 0.71 88 1012.3
20260906170550 23 82 0.0 1.6 0.13 0.69 0.66 87 1012.3
20260906170053 23 82 0.0 3.2 0.08 0.64 0.61 82 1012.3
20260906165550 23 98 0.0 4.8 0.00 0.56 0.53 80 1012.2
20260906165049 23 99 1.6 4.8 0.00 0.56 0.53 79 1012.3
20260906164552 23 4 0.0 4.8 0.00 0.56 0.53 81 1012.2
20260906164050 23 6 0.0 3.2 0.00 0.56 0.53 79 1012.2
20260906163550 23 108 0.0 4.8 0.00 0.56 0.53 79 1012.3
20260906163050 24 74 0.0 4.8 0.00 0.56 0.53 80 1012.4
20260906162550 24 111 0.0 1.6 0.00 0.56 0.53 78 1012.5
20260906162048 24 348 0.0 4.8 0.00 0.56 0.53 81 1012.6
20260906161549 24 348 0.0 4.8 0.00 0.56 0.53 78 1012.6
20260906161048 25 160 0.0 3.2 0.00 0.56 0.53 79 1012.7
20260906160548 25 193 0.0 0.0 0.00 0.56 0.53 82 1012.7
20260906160046 24 193 0.0 0.0 0.00 0.56 0.53 85 1012.8
20260906155544 23 193 0.0 0.0 0.00 0.56 0.53 85 1012.7
20260906155045 22 301 0.0 1.6 0.00 0.56 0.53 87 1012.8
20260906154547 21 360 0.0 3.2 0.00 0.56 0.53 88 1013.0
20260906154040 21 360 0.0 3.2 0.00 0.56 0.53 88 1013.0
20260906153538 21 131 0.0 0.0 0.00 0.56 0.53 89 1013.0
20260906153038 20 131 0.0 0.0 0.00 0.56 0.53 89 1013.1
20260906152536 20 131 0.0 0.0 0.00 0.56 0.53 88 1013.2
20260906152035 20 131 0.0 0.0 0.00 0.56 0.53 89 1013.1
20260906151536 20 131 0.0 0.0 0.00 0.56 0.53 91 1013.1
20260906151032 20 131 0.0 0.0 0.00 0.56 0.53 93 1013.0
20260906150532 19 131 0.0 0.0 0.03 0.56 0.53 95 1013.0
20260906150039 18 131 0.0 0.0 0.08 0.56 0.53 95 1012.9
20260906145528 18 214 0.0 0.0 0.13 0.56 0.53 96 1012.8
20260906145029 17 116 0.0 0.0 0.15 0.56 0.53 95 1012.9
20260906144529 17 142 0.0 0.0 0.23 0.56 0.53 96 1012.9
20260906144030 17 169 0.0 0.0 0.25 0.56 0.53 96 1012.8
20260906143528 17 231 0.0 0.0 0.30 0.56 0.53 96 1012.7
20260906143028 16 231 0.0 0.0 0.33 0.56 0.53 96 1012.7
20260906142533 16 231 0.0 3.2 0.38 0.56 0.53 96 1012.7
20260906142027 16 231 0.0 3.2 0.41 0.56 0.53 96 1012.8
20260906141526 16 245 0.0 1.6 0.46 0.56 0.53 95 1012.6
20260906141026 16 100 0.0 1.6 0.48 0.56 0.53 95 1012.4
20260906140526 16 3 0.0 0.0 0.46 0.53 0.51 95 1012.9
20260906140033 16 3 0.0 0.0 0.43 0.46 0.43 94 1012.8
20260906135525 16 22 0.0 0.0 0.41 0.43 0.41 94 1012.9
20260906135025 16 330 0.0 0.0 0.36 0.38 0.36 94 1013.2
20260906134525 16 330 0.0 0.0 0.30 0.33 0.30 94 1013.3
20260906134025 16 330 0.0 0.0 0.25 0.28 0.25 94 1013.3
20260906133524 16 330 0.0 0.0 0.23 0.25 0.23 94 1013.4
20260906133026 17 354 0.0 0.0 0.18 0.20 0.18 94 1013.5
20260906132524 17 354 0.0 0.0 0.15 0.18 0.15 94 1013.5
20260906132023 17 354 0.0 3.2 0.13 0.15 0.13 93 1013.5
20260906131524 17 354 0.0 3.2 0.08 0.10 0.08 93 1013.6
20260906131021 17 358 0.0 3.2 0.05 0.08 0.05 93 1013.5
20260906130522 17 325 0.0 3.2 0.05 0.08 0.05 94 1013.6
20260906130033 17 333 0.0 9.7 0.00 0.03 0.00 95 1013.4
20260906125523 17 7 3.2 17.7 0.00 0.03 0.00 96 1013.4
20260906125021 17 348 4.8 17.7 0.00 0.03 0.00 95 1013.2
20260906124518 17 333 0.0 3.2 0.00 0.03 0.00 95 1012.9
20260906124018 17 113 0.0 0.0 0.00 0.03 0.00 95 1012.6
20260906123516 17 112 0.0 0.0 0.00 0.03 0.00 96 1012.5
20260906123028 17 113 0.0 0.0 0.00 0.03 0.00 95 1012.4
20260906122517 17 112 0.0 0.0 0.00 0.03 0.00 95 1012.3
20260906122013 17 112 0.0 0.0 0.00 0.03 0.00 95 1012.2
20260906121513 18 113 0.0 0.0 0.00 0.03 0.00 95 1012.1
20260906121012 18 112 0.0 0.0 0.00 0.03 0.00 95 1012.3
20260906120511 18 113 0.0 0.0 0.00 0.03 0.00 96 1012.1
20260906120011 18 113 0.0 0.0 0.00 0.03 0.00 96 1012.2
20260906115511 18 113 0.0 0.0 0.00 0.03 0.00 96 1012.0
20260906115009 18 113 0.0 1.6 0.00 0.03 0.00 96 1011.8
20260906114510 17 128 0.0 1.6 0.00 0.03 0.00 96 1011.6
20260906114007 17 125 0.0 1.6 0.00 0.03 0.00 96 1011.7
20260906113506 17 131 0.0 0.0 0.00 0.03 0.00 96 1011.7
20260906113011 17 131 0.0 0.0 0.00 0.03 0.00 96 1011.8
20260906112506 17 132 0.0 0.0 0.00 0.03 0.00 96 1011.9
20260906112006 17 131 0.0 0.0 0.00 0.03 0.00 96 1011.7
20260906111505 17 131 0.0 1.6 0.00 0.03 0.00 96 1011.8
20260906111005 17 131 0.0 1.6 0.00 0.03 0.00 96 1011.7
20260906110505 17 131 0.0 3.2 0.00 0.03 0.00 96 1011.5
20260906110104 17 91 0.0 3.2 0.00 0.03 0.00 96 1011.4
20260906105504 17 99 0.0 3.2 0.00 0.03 0.00 96 1011.4
20260906105008 17 106 0.0 1.6 0.00 0.03 0.00 96 1011.3
20260906104507 17 106 0.0 1.6 0.00 0.03 0.00 95 1011.4
20260906104004 17 106 0.0 1.6 0.00 0.03 0.00 95 1011.5
20260906103504 17 89 0.0 3.2 0.00 0.03 0.00 95 1011.5
20260906103011 17 89 0.0 3.2 0.00 0.03 0.00 96 1011.5
20260906102504 16 82 0.0 0.0 0.00 0.03 0.00 96 1011.3
20260906102006 16 82 0.0 0.0 0.00 0.03 0.00 96 1011.4
20260906101504 16 82 0.0 1.6 0.00 0.03 0.00 96 1011.4
20260906101003 16 82 0.0 1.6 0.00 0.03 0.00 96 1011.4
20260906100503 16 349 0.0 0.0 0.00 0.03 0.00 96 1011.3
20260906100007 16 349 0.0 0.0 0.00 0.03 0.00 96 1011.2
20260906095502 16 349 0.0 0.0 0.00 0.03 0.00 96 1011.2
20260906095002 16 349 0.0 1.6 0.00 0.03 0.00 96 1011.0
20260906094502 16 349 0.0 3.2 0.00 0.03 0.00 96 1011.0
20260906094002 16 349 1.6 3.2 0.00 0.03 0.00 96 1010.9
20260906093503 16 166 0.0 1.6 0.00 0.03 0.00 96 1011.0
20260906093003 16 166 0.0 1.6 0.00 0.03 0.00 96 1011.0
20260906092502 16 166 0.0 0.0 0.00 0.03 0.00 96 1011.0
20260906092100 16 166 0.0 0.0 0.00 0.03 0.00 96 1010.9
20260906091600 16 166 0.0 0.0 0.00 0.03 0.00 96 1010.9
20260906091100 16 166 0.0 0.0 0.00 0.03 0.00 96 1010.9
20260906090559 17 166 0.0 0.0 0.00 0.03 0.00 96 1011.0
20260906090100 17 166 0.0 0.0 0.00 0.03 0.00 96 1011.0
20260906085559 17 166 0.0 0.0 0.00 0.03 0.00 96 1011.0
20260906085059 17 166 0.0 0.0 0.00 0.03 0.00 96 1011.1
20260906084602 17 166 0.0 1.6 0.00 0.03 0.00 96 1011.0
20260906084102 17 133 0.0 3.2 0.00 0.03 0.00 96 1010.9
20260906083603 16 133 1.6 3.2 0.00 0.03 0.00 96 1010.8
20260906083100 16 148 0.0 0.0 0.00 0.03 0.00 96 1010.8
20260906082558 16 148 0.0 0.0 0.00 0.03 0.00 96 1010.9
20260906082058 16 148 0.0 0.0 0.00 0.03 0.00 96 1010.8
20260906081559 16 148 0.0 0.0 0.00 0.03 0.00 96 1010.7
20260906081057 17 148 0.0 0.0 0.00 0.03 0.00 96 1010.7
20260906080600 17 148 0.0 0.0 0.00 0.03 0.00 96 1010.8
20260906080058 17 148 0.0 3.2 0.00 0.03 0.00 95 1010.7
20260906075559 16 148 0.0 3.2 0.00 0.03 0.00 95 1010.8
20260906075057 16 138 0.0 0.0 0.00 0.03 0.00 96 1010.9
20260906074557 16 138 0.0 0.0 0.00 0.03 0.00 96 1010.9
20260906074056 16 138 0.0 0.0 0.00 0.03 0.00 96 1011.0
20260906073556 16 139 0.0 0.0 0.00 0.03 0.00 96 1011.0
20260906073055 16 138 0.0 0.0 0.00 0.03 0.00 96 1011.0
20260906072555 16 138 0.0 0.0 0.00 0.03 0.00 96 1011.0
20260906072057 16 138 0.0 0.0 0.00 0.03 0.00 96 1011.0
20260906071555 17 139 0.0 0.0 0.00 0.03 0.00 96 1011.0
20260906071054 17 138 0.0 0.0 0.00 0.03 0.00 96 1010.9
20260906070556 16 138 0.0 0.0 0.00 0.03 0.00 96 1010.8
20260906070054 16 138 0.0 0.0 0.00 0.03 0.00 95 1010.8
20260906065554 16 138 0.0 0.0 0.00 0.03 0.00 96 1010.9
20260906065053 16 138 0.0 0.0 0.00 0.03 0.00 95 1011.1
20260906064551 16 138 0.0 0.0 0.00 0.03 0.00 95 1011.3
20260906064051 16 138 0.0 0.0 0.00 0.03 0.00 95 1011.4
20260906063550 16 138 0.0 0.0 0.00 0.03 0.00 95 1011.6
20260906063049 17 138 0.0 0.0 0.00 0.03 0.00 95 1011.6
20260906062549 17 138 0.0 0.0 0.00 0.03 0.00 95 1011.6
20260906062047 17 139 0.0 0.0 0.00 0.03 0.00 95 1011.9
20260906061552 17 138 0.0 0.0 0.00 0.03 0.00 95 1011.9
20260906061047 17 138 0.0 0.0 0.00 0.03 0.00 95 1011.8
20260906060547 17 138 0.0 0.0 0.00 0.03 0.00 95 1011.9
20260906060047 17 138 0.0 0.0 0.00 0.03 0.00 95 1012.0
20260906055546 17 138 0.0 0.0 0.00 0.03 0.00 95 1012.0
20260906055047 17 138 0.0 0.0 0.00 0.03 0.00 95 1012.2
20260906054601 17 138 0.0 0.0 0.00 0.03 0.00 95 1012.1
20260906054045 17 139 0.0 0.0 0.00 0.03 0.00 94 1012.1
20260906053544 17 138 0.0 0.0 0.00 0.03 0.00 94 1012.1
20260906053044 17 139 0.0 0.0 0.00 0.03 0.00 93 1011.9
20260906052544 17 138 0.0 0.0 0.00 0.03 0.00 93 1012.0
20260906052042 17 138 0.0 0.0 0.00 0.03 0.00 94 1012.1
20260906051542 17 138 0.0 0.0 0.00 0.03 0.00 94 1011.9
20260906051043 17 138 0.0 1.6 0.00 0.03 0.00 94 1012.0
20260906050543 17 138 0.0 1.6 0.00 0.03 0.00 94 1012.1
20260906050040 17 138 0.0 1.6 0.00 0.03 0.00 94 1012.1
20260906045539 17 139 0.0 1.6 0.00 0.03 0.00 94 1012.1
20260906045038 17 153 0.0 0.0 0.00 0.03 0.00 94 1012.3
20260906044538 17 153 0.0 0.0 0.00 0.03 0.00 94 1012.3
20260906044039 17 153 0.0 0.0 0.00 0.03 0.00 94 1012.3
20260906043538 17 153 0.0 0.0 0.00 0.03 0.00 94 1012.2
20260906043037 17 153 0.0 0.0 0.00 0.03 0.00 93 1012.2
20260906042537 17 153 0.0 0.0 0.00 0.03 0.00 93 1012.3
20260906042035 17 153 0.0 0.0 0.00 0.03 0.00 93 1012.4
20260906041535 17 153 0.0 0.0 0.00 0.03 0.00 93 1012.4
20260906041035 17 153 0.0 0.0 0.00 0.03 0.00 92 1012.4
20260906040533 17 153 0.0 0.0 0.00 0.03 0.00 92 1012.4
20260906040044 17 153 0.0 0.0 0.00 0.03 0.00 92 1012.4
20260906035532 17 153 0.0 0.0 0.00 0.03 0.03 92 1012.4
20260906035032 17 153 0.0 0.0 0.00 0.03 0.03 91 1012.5
20260906034546 17 153 0.0 0.0 0.00 0.03 0.03 91 1012.4
20260906034031 18 153 0.0 0.0 0.00 0.03 0.03 91 1012.5
20260906033532 18 153 0.0 1.6 0.00 0.03 0.03 90 1012.5
20260906033031 18 153 0.0 1.6 0.00 0.03 0.03 90 1012.4
20260906032530 18 153 0.0 0.0 0.00 0.03 0.03 90 1012.6
20260906032034 18 153 0.0 1.6 0.00 0.03 0.03 89 1012.6
20260906031558 18 140 0.0 1.6 0.00 0.03 0.03 89 1012.4
20260906031032 18 157 0.0 0.0 0.00 0.03 0.03 88 1012.3
20260906030530 18 157 0.0 1.6 0.00 0.03 0.03 87 1012.4
20260906030032 19 139 0.0 1.6 0.00 0.03 0.03 87 1012.5
20260906025531 19 139 0.0 0.0 0.00 0.03 0.03 86 1012.4
20260906025032 19 139 0.0 3.2 0.00 0.03 0.03 86 1012.5
20260906024550 19 139 0.0 3.2 0.00 0.03 0.03 87 1012.4
20260906024031 19 156 0.0 1.6 0.00 0.03 0.03 87 1012.4
20260906023530 19 171 0.0 1.6 0.00 0.03 0.03 87 1012.5
20260906023027 18 166 0.0 1.6 0.00 0.03 0.03 87 1012.4
20260906022526 18 166 0.0 1.6 0.00 0.03 0.03 86 1012.3
20260906022025 19 162 0.0 1.6 0.00 0.03 0.03 86 1012.2
20260906021524 19 207 0.0 0.0 0.00 0.03 0.03 84 1012.2
20260906021024 20 207 0.0 0.0 0.00 0.03 0.03 83 1012.1
20260906020527 20 207 0.0 0.0 0.00 0.03 0.03 83 1012.2
20260906020024 20 207 0.0 0.0 0.00 0.03 0.03 82 1012.1
20260906015525 20 207 0.0 0.0 0.00 0.03 0.03 81 1012.2
20260906015023 20 207 0.0 0.0 0.00 0.03 0.03 80 1012.2
20260906014524 20 207 0.0 0.0 0.00 0.03 0.03 80 1012.1
20260906014023 20 207 0.0 1.6 0.00 0.03 0.03 79 1012.0
20260906013523 21 207 0.0 1.6 0.00 0.03 0.03 79 1012.0
20260906013023 21 207 0.0 1.6 0.00 0.03 0.03 77 1012.1
20260906012523 21 349 0.0 1.6 0.00 0.03 0.03 76 1011.9
20260906012022 21 349 0.0 1.6 0.00 0.03 0.03 75 1011.8
20260906011522 22 349 0.0 4.8 0.00 0.03 0.03 74 1011.9
20260906011021 22 349 0.0 4.8 0.00 0.03 0.03 74 1011.8
20260906010522 22 343 0.0 3.2 0.00 0.03 0.03 73 1011.8
20260906010040 22 326 0.0 8.0 0.00 0.03 0.03 73 1011.5
20260906005521 22 11 1.6 8.0 0.00 0.03 0.03 73 1011.4
20260906005022 22 336 1.6 16.1 0.00 0.03 0.03 72 1011.4
20260906004522 22 11 1.6 16.1 0.00 0.03 0.03 72 1011.5
20260906004022 22 326 1.6 8.0 0.00 0.03 0.03 71 1011.3
20260906003521 22 320 1.6 11.3 0.00 0.03 0.03 71 1011.3
20260906003021 22 311 1.6 6.4 0.00 0.03 0.03 71 1011.4
20260906002520 22 18 0.0 4.8 0.00 0.03 0.03 70 1011.4
20260906002024 22 341 0.0 6.4 0.00 0.03 0.03 70 1011.3
20260906001524 22 354 1.6 6.4 0.00 0.03 0.03 70 1011.2
20260906001019 22 343 1.6 6.4 0.00 0.03 0.03 70 1011.2
20260906000519 22 345 3.2 4.8 0.00 0.03 0.03 70 1011.1
20260906000021 22 351 0.0 3.2 0.00 0.03 0.03 70 1011.0
20260905235519 22 355 0.0 0.0 0.00 0.03 0.03 70 1010.9
20260905235021 23 355 0.0 0.0 0.00 0.03 0.03 69 1010.9
20260905234518 23 355 0.0 0.0 0.00 0.03 0.03 68 1011.0
20260905234019 23 355 0.0 0.0 0.00 0.03 0.03 67 1010.9
20260905233519 23 355 0.0 1.6 0.00 0.03 0.03 67 1010.9
20260905233020 24 355 0.0 1.6 0.00 0.03 0.03 67 1010.8
20260905232518 24 355 0.0 4.8 0.00 0.03 0.03 67 1010.9
20260905232018 24 354 0.0 3.2 0.00 0.03 0.03 66 1010.9
20260905231517 24 353 0.0 4.8 0.00 0.03 0.03 65 1010.8
20260905231019 25 360 0.0 4.8 0.00 0.03 0.03 64 1010.8
20260905230517 25 360 0.0 6.4 0.00 0.03 0.03 63 1010.8
20260905230030 25 340 1.6 6.4 0.00 0.03 0.03 63 1010.9
20260905225521 25 8 0.0 8.0 0.00 0.03 0.03 62 1010.9
20260905225017 25 346 1.6 9.7 0.00 0.03 0.03 62 1010.9
20260905224520 25 7 4.8 9.7 0.00 0.03 0.03 60 1011.0
20260905224017 25 340 1.6 17.7 0.00 0.03 0.03 60 1011.0
20260905223516 25 347 3.2 17.7 0.00 0.03 0.03 60 1010.9
20260905223018 25 349 3.2 12.9 0.00 0.03 0.03 59 1011.0
20260905222517 25 40 3.2 14.5 0.00 0.03 0.03 59 1011.1
20260905222015 25 20 3.2 14.5 0.00 0.03 0.03 58 1010.9
20260905221615 26 352 1.6 12.9 0.00 0.03 0.03 58 1011.0
20260905221016 26 344 1.6 14.5 0.00 0.03 0.03 58 1010.9
20260905220516 26 323 6.4 14.5 0.00 0.03 0.03 57 1010.9
20260905220016 26 311 3.2 12.9 0.00 0.03 0.03 57 1010.9
20260905215516 26 20 4.8 12.9 0.00 0.03 0.03 56 1011.0
20260905215014 26 316 4.8 12.9 0.00 0.03 0.03 55 1010.8
20260905214515 26 335 1.6 12.9 0.00 0.03 0.03 56 1010.8
20260905214014 26 10 3.2 14.5 0.00 0.03 0.03 54 1010.7
20260905213517 26 17 3.2 12.9 0.00 0.03 0.03 54 1010.6
20260905213014 26 6 4.8 19.3 0.00 0.03 0.03 53 1010.7
20260905212513 26 4 3.2 19.3 0.00 0.03 0.03 53 1010.7
20260905212012 26 358 6.4 19.3 0.00 0.03 0.03 52 1010.7
20260905211529 26 325 4.8 19.3 0.00 0.03 0.03 51 1010.8
20260905211013 26 307 0.0 16.1 0.00 0.03 0.03 52 1010.6
20260905210512 27 349 4.8 12.9 0.00 0.03 0.03 51 1010.7
20260905210012 27 335 0.0 19.3 0.00 0.03 0.03 52 1010.8